Overview Statistics Trail Chart Weather Telemetry Raw packets
 

This is the latest recevied weather packets stored in our database for station/object KW4UJ. If no packets are shown the sender has not sent any weather packets the latest 10 day(s).

<< 14 15 16 17 18 19 20 >>
Time Temp. Humidity Pressure Rain* Wind** Luminosity Snow
1788540189 30° C 62% 1014.4 hPa 0 mm - 561 W/m² -
1788539886 30° C 65% 1014.3 hPa 0 mm - 259 W/m² -
1788539586 30.56° C 65% 1014.5 hPa 0 mm - 512 W/m² -
1788539285 30° C 65% 1014.5 hPa 0 mm - 225 W/m² -
1788538981 29.44° C 66% 1014.4 hPa 0 mm - 206 W/m² -
1788538675 29.44° C 68% 1014.6 hPa 0 mm - 99 W/m² -
1788538370 29.44° C 67% 1014.5 hPa 0 mm - 72 W/m² -
1788538066 29.44° C 68% 1014.6 hPa 0 mm - 76 W/m² -
1788537761 29.44° C 68% 1014.5 hPa 0 mm - 73 W/m² -
1788537461 28.89° C 68% 1014.6 hPa 0 mm - 70 W/m² -
1788537161 28.89° C 68% 1014.6 hPa 0 mm - 71 W/m² -
1788536859 28.89° C 70% 1014.5 hPa 0 mm - 72 W/m² -
1788536554 28.89° C 70% 1014.6 hPa 0 mm - 70 W/m² -
1788536250 28.33° C 71% 1014.6 hPa 0 mm - 70 W/m² -
1788535945 28.33° C 72% 1014.7 hPa 0 mm - 69 W/m² -
1788535641 28.33° C 72% 1014.5 hPa 0 mm - 65 W/m² -
1788535336 28.33° C 71% 1014.6 hPa 0 mm - 64 W/m² -
1788535031 28.33° C 74% 1014.6 hPa 0 mm - 65 W/m² -
1788534730 27.78° C 74% 1014.8 hPa 0 mm - 60 W/m² -
1788534426 27.78° C 73% 1014.7 hPa 0 mm - 58 W/m² -
1788534121 28.33° C 74% 1015 hPa 0 mm - 56 W/m² -
1788533819 27.78° C 73% 1014.9 hPa 0 mm - 55 W/m² -
1788533515 27.78° C 76% 1015 hPa 0 mm - 54 W/m² -
1788533210 27.78° C 74% 1014.8 hPa 0 mm - 55 W/m² -
1788532906 27.78° C 75% 1014.8 hPa 0 mm - 55 W/m² -

* Rain latest hour (hover to see other rain measurements)
** Current wind speed in m/s (hover to see current wind gust speed)